Location: Artiguedieu
(43.5000°N, 0.5454°E)
Time: 19:55:54
(UTC+00:00)

Explorer 7 - Pass Details

Date: 04 August 2021
Orbit: 484 x 676 km, 50.3° (Epoch: 18 September)

Event Time Altitude Azimuth Distance (km) Brightness Sun altitude
Rises 03:45:33 0° 231° (SW) 2,534 - -11.0°
Reaches altitude 10° 03:47:42 10° 228° (SW) 1,660 - -10.6°
Exits shadow 03:48:27 15° 226° (SW) 1,365 8.2 -10.5°
Maximum altitude 03:51:24 65° 146° (SE) 544 6.8 -10.1°
Drops below altitude 10° 03:55:14 10° 65° (ENE) 1,715 10.9 -9.5°
Sets 03:57:29 0° 62° (ENE) 2,628 12.5 -9.2°
